#timestamp,LO_Frequency,Hit,StdDev 
1570597215.4,286047002.7,N
1570597235.2,286047000.2,N
1570597255.0,286047002.8,N
1570597255.9,286047002.8,N
1570597275.8,286047000.4,N
1570597295.6,286047001.0,N
1570597315.5,286047001.1,N
1570597335.3,286046998.5,N
1570597355.1,286046999.0,N
1570597375.9,286046998.5,N
1570597395.7,286046998.6,N
1570597415.6,286047000.7,N
1570597435.4,286047001.1,N
1570597455.2,286046998.6,N
1570597475.1,286047001.2,N
1570597476.0,286047001.2,N
1570597495.8,286046999.4,N
1570597515.6,286046998.1,N
1570597535.5,286047002.3,N
1570597555.3,286047001.9,N
1570597575.2,286047001.3,N
1570597595.9,286047001.8,N
1570597615.7,286047002.1,N
1570597635.6,286047002.5,N
1570597655.4,286047002.2,N
1570597675.2,286047001.6,N
1570597695.1,286047002.3,N
1570597696.0,286047002.3,N
1570597715.8,286046998.1,N
1570597735.7,286047000.8,N
1570597755.5,286046998.7,N
1570597775.3,286046996.7,N
1570597795.2,286046997.6,N
1570597815.0,286046999.6,N
1570597815.9,286046999.6,N
1570597835.8,286046996.7,N
1570597855.6,286046998.9,N
1570597875.4,286046998.6,N
1570597895.3,286046998.4,N
1570597915.1,286046998.5,N
1570597935.8,286047000.4,N
1570597955.7,286047001.0,N
1570597975.5,286047000.4,N
1570597995.4,286046998.2,N
1570598015.2,286046999.1,N
1570598035.0,286046998.1,N
1570598055.6,286047000.7,N
1570598075.4,286047000.2,N
1570598095.2,286046998.6,N
1570598115.1,286046998.6,N
1570598116.0,286046998.6,N
1570598135.8,286046999.2,N
1570598155.7,286046997.0,N
1570598175.5,286046996.8,N
1570598195.3,286046996.6,N
1570598215.2,286046998.1,N
1570598235.0,286047000.2,N
1570598235.9,286047000.2,N
1570598255.8,286047000.3,N
1570598275.6,286047002.1,N
1570598295.4,286047002.5,N
1570598315.3,286047002.4,N
1570598335.1,286047002.0,N
1570598355.9,286047002.0,N
1570598375.7,286046998.6,N
1570598395.5,286046998.7,N
1570598445.4,286046998.5,E
1570598455.3,286047002.8,N
1570598475.2,286047002.5,P
1570598495.0,286047002.1,P
1570598495.9,286047002.1,Y
1570598515.8,286046998.4,P
1570598535.6,286046996.7,N
1570598555.4,286046997.2,N
1570598575.3,286046997.2,N
1570598595.1,286046999.1,N
1570598615.9,286047001.0,N
1570598635.7,286046999.6,N
1570598655.5,286046996.6,N
1570598675.4,286046996.7,N
1570598695.2,286046997.4,N
1570598715.0,286046997.7,N
1570598715.9,286046997.7,N
1570598735.8,286046997.2,N
1570598755.6,286046999.5,N
1570598775.5,286046998.6,N
1570598795.3,286046998.3,N
1570598815.5,286046998.2,N
1570598835.4,286046998.4,N
1570598855.2,286046999.6,N
1570598875.0,286046998.1,N
1570598876.0,286046998.1,N
1570598895.8,286047000.3,N
1570598915.6,286047000.0,N
1570598935.5,286046998.6,N
1570598955.3,286046999.0,N
1570598975.2,286046998.8,N
1570598995.9,286047000.6,N
1570599015.7,286047001.1,N
1570599035.6,286047000.5,N
1570599055.4,286047002.4,N
1570599075.2,286047002.0,N
1570599095.1,286047002.1,N
1570599096.0,286047002.1,N
1570599115.8,286047001.6,N
1570599135.7,286047001.8,N
1570599155.5,286047002.1,N
1570599175.3,286047000.9,N
1570599195.2,286047001.1,N
1570599215.0,286046998.4,N
1570599215.9,286046998.4,N
1570599235.8,286046999.6,N
1570599255.6,286047001.2,N
1570599275.4,286047000.9,N
1570599295.3,286047000.6,N
1570599315.1,286047000.6,N
1570599335.9,286047001.2,N
1570599355.7,286046998.2,N
1570599375.5,286046998.6,N
1570599395.4,286046999.3,N
1570599415.2,286046998.7,N
1570599435.0,286047001.1,N
1570599435.9,286047001.1,N
1570599455.8,286046998.6,N
1570599475.6,286046998.5,N
1570599495.5,286047001.1,N
1570599515.3,286047000.5,N
1570599535.1,286047000.1,N
1570599555.9,286046998.6,N
1570599575.7,286046996.5,N
1570599595.6,286046997.3,N
1570599615.4,286046996.5,N
1570599635.2,286047001.2,N
1570599655.1,286046999.7,N
1570599656.0,286046999.7,N
1570599675.8,286047002.6,N
1570599695.6,286047000.3,N
1570599715.5,286047002.8,N
1570599735.3,286047002.8,N
1570599755.2,286047004.2,N
1570599775.9,286047003.9,N
1570599795.7,286047002.1,N
1570599815.6,286047001.7,N
1570599835.4,286047001.4,N
1570599855.3,286047001.5,N
1570599875.1,286047004.1,N
1570599876.0,286047004.1,N
1570599895.8,286047002.2,N
1570599915.7,286047000.9,N
1570599935.5,286047000.7,N
1570599955.3,286047000.3,N
1570599975.2,286047002.4,N
1570599995.0,286047000.0,N
1570599995.9,286047000.0,N
1570600015.8,286047000.2,N
1570600035.6,286047004.0,N
1570600055.4,286047004.4,N
1570600075.3,286047003.8,N
1570600095.1,286047003.7,N
1570600115.9,286047005.9,N
1570600135.7,286047003.7,N
1570600155.5,286047001.7,N
1570600175.4,286047000.4,N
1570600195.2,286047001.2,N
1570600215.0,286047000.6,N
1570600215.9,286047000.6,N
1570600235.8,286047002.3,N
1570600255.6,286047001.6,N
1570600275.5,286047002.8,N
1570600295.3,286047000.7,N
1570600315.1,286047001.0,N
1570600335.9,286047000.3,N
1570600355.7,286047001.0,N
1570600375.5,286046999.8,N
1570600395.4,286046998.9,N
1570600415.2,286047000.7,N
1570600435.1,286047002.6,N
1570600436.0,286047002.6,N
1570600455.8,286046999.9,N
1570600475.6,286046998.1,N
1570600495.5,286047000.7,N
1570600515.3,286046999.9,N
1570600535.2,286046999.9,N
1570600555.9,286046999.9,N
1570600575.7,286047000.9,N
1570600595.6,286046998.5,N
1570600615.4,286047001.2,N
1570600635.3,286046999.8,N
1570600655.1,286047000.9,N
1570600656.0,286047000.9,N
1570600675.8,286046999.9,N
1570600695.7,286047000.0,N
1570600715.5,286046998.5,N
1570600735.3,286046998.9,N
1570600755.2,286047001.2,N
1570600775.0,286046999.9,N
1570600775.9,286046999.9,N
1570600795.8,286047002.3,N
